User: anonymous   Login
Location: Pedholt
(56.0260°N, 10.2097°E)
Time: 10:07:06
(UTC+00:00)
Language:

Cosmos 2242 Rocket - Orbit

View from above orbital plane
View from above orbital plane
View from above satellite
View from above satellite

Ground track
Ground track

The orbit data is extracted from the following two-line orbital elements,

1 22627U 93024B   20269.90219324 +.00000095 +00000-0 +98834-5 0  9997
2 22627 082.5207 068.7482 0024016 021.4116 338.8095 14.78180635478938
Epoch (UTC): 25 September 2020 21:39:09
Eccentricity: 0.0024016
inclination: 82.5207°
perigee height: 618 km
apogee height: 652 km
right ascension of ascending node: 68.7482°
argument of perigee: 21.4116°
revolutions per day: 14.78180635
mean anomaly at epoch: 338.8095°
orbit number at epoch: 47893

The dashed part of the orbit path shows where the satellite is in the earth's shadow,  

DLR